Wetbulb
39.74 35.27 32.84 35.61 36.59 35.59 33.86 32.32 32.49 35.18 39.42 36.01 36.33 36.30 39.72 40.28 40.24 36.85 35.37 36.31 36.95 37.35 38.78 38.88 38.53 38.16 38.27 38.69 39.26 39.86 40.46 41.34 44.31 45.40 48.12 50.12 50.45 51.45 52.34 55.22 56.47 56.42 55.69 53.16
36.33 33.35 38.85 39.13 38.46 36.61 35.11 32.78 32.52 36.34 38.43 36.11 35.04 35.78 36.12 36.76 35.87 35.70 35.46 35.50 35.96 35.83 36.16 37.23 36.86 36.62 36.46 36.44 37.56 38.41 39.13 39.44 40.78 42.62 43.38 44.56 44.65 44.85 48.86 49.68 51.86 52.96 54.01 53.47
34.37 38.24 40.83 40.02 37.48 36.44 35.02 33.35 32.91 34.77 35.44 34.80 32.18 31.70 32.94 36.00 36.49 37.05 36.37 36.17 35.82 34.90 34.75 35.10 35.39 34.66 34.98 34.70 35.33 37.21 37.84 38.34 38.53 39.96 41.22 41.77 42.03 41.55 41.62 42.52 44.23 47.30 49.02 50.34
36.55 40.40 39.63 37.08 36.54 37.20 32.59 36.76 35.85 33.84 30.69 27.02 31.56 23.74 31.08 33.15 33.08 33.94 33.73 32.99 33.20 33.83 34.70 34.84 34.16 33.98 33.67 33.29 34.10 35.59 36.85 37.22 37.92 38.06 38.01 37.16 36.74 36.17 36.97 38.30 39.35 41.03 42.37 43.07
37.13 36.11 35.36 35.12 37.06 37.44 34.64 35.70 33.76 32.35 29.37 26.87 27.12 24.51 29.05 32.54 30.44 31.16 31.93 33.23 33.30 33.81 33.75 33.46 33.23 34.18 33.82 33.29 32.61 33.17 34.87 35.42 35.91 36.16 36.42 35.71 35.00 35.23 35.49 36.38 36.33 37.11 38.38 38.58
36.38 37.51 37.49 37.80 37.31 36.90 36.81 33.90 32.87 29.40 27.97 22.29 27.22 27.38 28.05 30.59 32.39 31.19 32.66 33.28 33.87 33.23 32.97 33.26 33.95 33.48 32.06 31.72 32.09 32.19 33.12 33.45 34.23 34.04 34.02 33.97 33.29 33.33 33.09 33.24 33.64 34.44 35.31 35.97
34.62 35.57 36.65 38.03 34.67 34.69 33.89 30.36 24.90 22.60 20.89 22.42 29.78 26.24 29.68 32.74 33.62 33.87 32.49 32.21 32.47 32.50 31.57 31.42 31.43 31.22 31.12 30.39 30.02 31.91 31.22 31.23 32.36 32.59 32.32 31.97 31.79 31.75 31.29 31.30 31.39 31.48 32.21 33.11
31.25 29.50 34.61 36.45 35.76 33.90 31.50 31.17 23.57 13.48 19.77 22.57 29.48 26.65 30.82 32.86 34.07 34.06 33.72 32.94 32.92 32.23 32.30 31.25 30.92 30.84 30.79 30.71 29.51 29.35 29.59 29.89 31.10 31.15 30.83 30.95 30.64 30.41 30.60 30.49 30.58 30.73 31.09 31.80
30.33 30.37 34.02 34.83 34.77 36.68 32.88 29.78 33.50 28.26 26.87 25.16 26.29 27.84 32.41 33.06 31.68 31.73 31.46 31.19 30.70 31.50 32.29 31.37 30.53 30.31 30.98 30.97 31.34 30.57 29.29 29.33 29.72 30.18 30.49 30.61 30.25 28.94 28.39 28.78 29.56 29.98 30.67 31.84
35.04 27.02 35.57 34.97 37.01 34.60 34.54 36.05 27.93 27.86 13.21 17.63 22.66 24.62 25.93 29.58 30.00 31.08 29.93 29.99 30.55 31.76 32.98 33.18 32.41 32.00 31.68 31.46 31.86 30.75 30.99 29.54 29.14 29.16 30.01 30.60 29.95 30.68 29.86 29.19 28.52 28.67 29.68 30.36
36.65 32.41 30.44 34.36 32.68 32.29 30.24 30.30 30.74 30.61 27.71 17.18 14.55 22.54 31.44 32.41 32.70 31.11 30.07 30.61 30.39 30.62 30.85 31.80 30.58 29.71 29.62 30.14 30.31 30.71 30.24 29.79 29.64 29.86 29.48 29.39 29.82 28.38 28.12 28.21 28.25 28.34 28.31 28.20
37.23 32.56 24.37 30.30 34.31 34.74 33.04 31.15 31.18 27.69 23.21 24.98 24.57 25.08 34.21 34.47 33.13 32.20 31.33 32.18 30.94 30.47 28.78 27.91 29.01 27.90 27.52 27.05 26.92 27.03 27.69 27.46 28.24 28.22 28.16 27.65 27.67 26.97 26.16 26.01 26.18 26.20 27.31 27.98
37.37 28.29 16.62 22.22 27.83 31.40 30.26 31.97 31.91 30.98 28.71 19.89 22.86 22.92 32.89 32.72 31.77 31.95 31.20 31.21 30.80 28.42 26.70 27.33 27.08 27.77 27.84 26.58 26.38 26.35 26.48 27.10 27.79 27.56 26.66 26.07 25.47 25.32 25.47 25.57 25.72 26.29 26.04 25.29
38.98 29.40 23.96 20.99 23.21 28.04 25.40 28.36 29.18 27.18 21.11 21.01 24.26 25.17 29.08 30.49 30.10 30.80 31.44 31.30 28.84 26.99 26.45 25.79 25.42 25.92 26.24 26.90 26.60 26.02 26.41 26.80 26.75 26.43 25.69 24.72 24.65 24.95 24.96 25.16 25.12 24.76 25.07 24.13
33.71 23.19 26.69 28.12 28.29 28.04 26.15 27.19 27.05 25.36 25.85 21.53 24.94 24.00 28.44 29.56 26.68 27.90 27.76 28.20 27.53 25.62 25.08 24.61 24.67 24.96 25.63 25.92 25.70 26.16 26.43 26.36 25.88 24.73 24.52 24.33 24.75 25.00 24.50 24.29 24.43 24.43 24.47 24.70
31.58 19.43 23.28 15.20 25.39 26.54 23.87 25.45 24.68 25.65 25.86 24.51 25.11 24.26 30.97 28.31 25.15 24.23 25.22 27.17 27.08 26.77 26.13 26.29 26.03 25.86 25.80 25.57 25.35 25.81 25.01 25.55 24.73 23.31 23.94 24.82 24.56 24.56 24.13 24.05 23.57 23.30 23.13 22.65
28.14 22.23 16.63 14.17 20.75 18.04 12.45 18.43 22.69 24.23 24.23 22.91 18.79 23.64 20.74 22.69 25.54 24.92 24.03 24.14 24.69 25.45 25.73 25.76 26.05 26.09 26.34 25.58 26.06 24.24 23.59 23.85 23.51 23.46 22.33 22.27 22.07 20.50 20.82 20.22 19.10 18.45 17.69 18.08
25.53 20.83 15.48 8.25 9.42 1.71 19.77 21.50 22.19 22.00 23.62 22.65 18.49 15.14 19.13 21.94 22.75 24.13 24.18 24.53 25.08 25.51 26.06 26.04 25.75 24.97 25.40 24.32 23.77 23.87 23.38 22.21 21.98 19.34 16.86 18.14 17.87 15.77 16.38 15.38 14.56 14.03 14.26 13.65
26.80 22.69 8.82 7.54 3.39 11.44 19.94 21.30 19.71 18.07 16.83 18.20 17.16 17.73 22.44 22.04 21.19 20.41 24.77 24.88 24.88 25.54 26.44 26.02 25.72 24.55 23.27 22.21 21.74 20.88 20.09 20.08 18.46 17.37 17.61 15.66 13.50 10.90 12.00 9.04 10.09 10.53 9.51 9.41
23.56 24.69 17.37 -0.94 -0.71 0.22 15.93 19.32 22.00 22.09 10.79 14.81 13.70 16.14 18.96 20.59 11.21 18.34 23.75 26.22 26.10 26.13 25.89 25.57 24.49 23.61 21.58 19.68 19.62 18.12 17.49 15.80 14.52 15.43 13.93 13.07 11.85 4.55 6.52 7.27 6.29 7.14 6.64 7.65
6.76 8.39 17.27 14.65 4.76 6.90 18.34 20.41 22.78 8.06 13.60 13.67 16.97 20.57 20.15 18.28 22.06 23.47 24.96 24.77 25.83 26.16 25.09 23.75 22.56 21.49 19.11 18.21 16.34 14.99 14.35 12.81 13.38 11.71 11.07 10.12 8.68 5.64 4.73 4.56 5.23 4.14 3.51 4.89
11.67 8.59 6.06 6.12 3.77 2.91 19.68 20.15 15.85 20.93 23.45 22.83 23.00 24.12 22.90 24.17 24.55 24.25 24.79 24.37 24.74 23.33 22.86 21.80 18.96 17.78 17.17 15.88 13.55 11.80 10.57 12.17 9.98 8.98 7.17 4.30 1.85 2.16 4.49 1.28 1.82 1.72 1.13 0.67
11.25 14.93 9.17 12.54 11.49 22.03 21.78 24.27 26.93 26.06 22.45 24.70 24.42 25.13 24.41 24.00 23.75 24.40 24.16 24.10 23.94 22.30 21.40 18.02 15.48 15.20 14.29 13.39 11.27 7.99 9.26 8.87 7.52 -1.60 -3.07 -2.97 -0.09 1.97 2.44 0.00 0.43 0.21 0.72 0.43
18.34 19.73 15.51 14.17 19.23 20.52 23.76 26.53 25.11 25.48 25.07 26.03 26.22 25.75 24.31 23.45 24.42 24.42 23.51 23.18 22.19 19.56 16.81 13.83 11.99 11.72 11.39 11.05 9.90 6.24 6.30 6.58 -6.27 -10.32 -4.27 -0.43 0.17 0.73 1.01 2.22 2.28 0.16 -0.43 0.02
19.41 18.90 15.68 16.57 22.42 21.96 22.71 23.62 25.52 25.14 25.12 25.44 24.98 24.88 24.68 23.26 23.55 23.79 22.70 21.03 19.74 16.87 13.98 12.09 10.40 10.70 9.71 8.69 6.96 3.21 3.03 -2.96 -5.74 -4.74 -0.95 -0.30 0.11 -1.07 0.99 2.16 1.66 2.39 4.39 5.62
24.32 21.46 17.64 16.14 24.35 23.39 24.28 26.41 25.96 25.00 25.13 24.62 24.25 23.30 23.26 23.18 23.12 21.73 19.21 18.16 15.15 12.85 10.50 9.57 8.58 6.83 6.74 4.75 3.15 2.54 -1.68 -7.85 -9.06 -4.39 -0.93 -0.34 0.36 0.85 1.46 0.76 0.43 7.72 10.42 12.57
MSLP
1018.10 1018.71 1018.58 1018.18 1018.33 1018.31 1018.59 1018.71 1018.63 1017.85 1017.13 1017.29 1016.83 1016.97 1016.34 1016.61 1016.85 1017.75 1019.33 1020.17 1020.86 1021.35 1021.71 1021.54 1021.17 1020.61 1020.02 1019.45 1018.83 1018.17 1017.58 1017.41 1016.79 1016.75 1017.15 1017.13 1017.55 1017.60 1017.60 1017.43 1017.34 1017.38 1017.60 1017.93
1018.78 1018.48 1017.57 1017.93 1018.22 1018.56 1018.73 1018.83 1018.54 1017.88 1017.38 1017.61 1017.54 1017.44 1017.70 1017.95 1018.82 1019.67 1020.50 1021.15 1021.66 1022.08 1022.19 1022.22 1022.03 1021.56 1021.11 1020.74 1020.32 1019.72 1019.32 1018.88 1018.58 1018.41 1018.45 1018.43 1018.56 1018.85 1018.74 1018.38 1018.35 1018.38 1018.25 1018.25
1018.25 1017.68 1017.31 1017.74 1017.97 1018.41 1018.46 1018.62 1018.47 1018.48 1018.07 1017.91 1018.17 1018.19 1018.18 1019.15 1020.02 1020.90 1021.83 1022.37 1022.77 1023.05 1023.30 1023.39 1023.04 1022.70 1022.20 1021.73 1021.41 1021.12 1020.78 1020.49 1020.16 1019.90 1019.21 1019.12 1019.16 1019.51 1019.66 1019.78 1019.55 1019.58 1019.31 1019.21
1018.15 1017.18 1017.37 1017.73 1017.84 1018.06 1018.21 1017.89 1018.22 1018.75 1019.40 1019.59 1019.29 1019.40 1018.71 1019.56 1020.74 1021.57 1022.43 1023.03 1023.44 1023.63 1023.71 1023.67 1023.60 1023.37 1023.02 1023.08 1022.69 1022.29 1021.80 1021.49 1021.40 1021.18 1020.99 1021.01 1021.37 1021.66 1022.07 1021.84 1021.32 1020.66 1020.35 1020.28
1017.19 1017.00 1017.15 1017.46 1017.36 1017.68 1018.05 1018.08 1018.60 1019.21 1019.96 1020.49 1020.56 1021.01 1019.15 1019.93 1021.38 1022.53 1023.34 1023.78 1023.94 1024.07 1024.29 1024.17 1024.01 1024.20 1023.88 1023.65 1023.48 1023.40 1023.23 1022.76 1022.76 1022.50 1022.25 1022.32 1022.49 1022.75 1022.57 1022.32 1021.98 1021.73 1021.61 1021.52
1017.28 1016.98 1016.93 1016.88 1017.24 1017.67 1018.16 1018.68 1019.45 1020.34 1020.97 1021.30 1020.38 1020.82 1019.87 1020.14 1020.71 1022.57 1023.51 1023.97 1024.42 1024.68 1024.71 1024.58 1024.69 1024.60 1024.50 1024.30 1024.01 1023.92 1023.89 1023.98 1023.84 1023.66 1023.57 1023.58 1023.74 1023.61 1023.38 1023.29 1022.91 1022.75 1022.65 1022.54
1017.24 1016.85 1016.57 1016.71 1017.51 1018.05 1018.52 1019.90 1020.98 1021.79 1022.34 1021.64 1021.09 1021.61 1019.92 1020.18 1020.54 1021.36 1022.99 1023.97 1024.50 1024.69 1024.87 1024.98 1025.09 1025.13 1025.14 1025.03 1024.94 1024.79 1024.80 1024.89 1024.80 1024.55 1024.52 1024.69 1024.67 1024.64 1024.64 1024.69 1024.53 1023.88 1023.37 1023.23
1017.57 1017.37 1016.86 1016.90 1017.18 1017.93 1018.75 1019.79 1021.20 1022.43 1023.19 1022.73 1022.04 1021.52 1020.69 1021.32 1021.51 1022.37 1023.13 1023.79 1024.25 1024.54 1024.85 1025.17 1025.16 1025.25 1025.38 1025.36 1025.20 1025.31 1025.49 1025.49 1025.38 1025.35 1025.17 1025.34 1025.45 1025.45 1025.49 1025.32 1025.20 1025.19 1024.84 1024.19
1017.56 1017.66 1017.18 1017.16 1017.26 1017.88 1019.14 1019.86 1020.65 1022.28 1023.57 1023.62 1022.11 1021.37 1021.53 1021.78 1022.53 1023.08 1023.71 1024.05 1024.31 1024.63 1024.78 1024.85 1024.99 1025.00 1025.17 1025.48 1025.58 1025.28 1025.62 1025.84 1025.96 1025.86 1026.00 1026.04 1026.02 1026.25 1026.04 1025.87 1025.55 1025.15 1024.82 1024.43
1017.03 1017.93 1017.75 1017.74 1017.83 1018.53 1018.69 1019.59 1021.03 1022.30 1023.77 1024.17 1022.42 1021.55 1020.73 1021.68 1022.41 1022.91 1023.35 1023.72 1024.01 1024.15 1024.36 1024.74 1025.02 1025.27 1025.34 1025.37 1025.67 1025.70 1025.95 1026.19 1026.37 1026.31 1026.28 1026.56 1026.34 1026.38 1026.43 1026.05 1026.22 1025.60 1025.03 1024.78
1017.40 1017.99 1019.14 1018.85 1018.72 1018.85 1019.75 1019.83 1020.60 1021.70 1022.45 1022.69 1022.36 1020.65 1019.68 1020.47 1021.25 1022.32 1022.99 1023.35 1023.50 1023.77 1024.19 1024.83 1025.17 1025.28 1025.50 1025.69 1025.78 1025.96 1026.16 1026.12 1026.21 1026.57 1026.60 1026.54 1026.36 1026.44 1026.35 1026.13 1026.15 1025.46 1025.08 1025.10
1017.60 1018.52 1019.56 1019.56 1019.11 1019.00 1019.19 1019.77 1020.33 1021.19 1022.20 1022.41 1021.85 1020.10 1019.57 1019.94 1020.71 1021.80 1022.49 1022.78 1023.12 1023.71 1024.37 1024.85 1025.11 1025.43 1025.79 1025.93 1026.01 1026.22 1026.48 1026.61 1026.88 1026.96 1026.74 1026.69 1026.82 1026.75 1026.49 1026.02 1025.74 1025.37 1025.40 1025.14
1017.82 1019.32 1020.35 1020.70 1020.56 1019.83 1019.89 1020.58 1020.99 1021.58 1021.96 1021.91 1022.30 1020.34 1019.97 1020.21 1020.96 1021.61 1022.28 1022.87 1023.29 1023.84 1024.48 1024.99 1025.33 1025.59 1025.87 1025.93 1026.16 1026.46 1026.77 1026.90 1026.91 1026.90 1026.88 1026.99 1027.07 1027.01 1026.38 1026.14 1025.98 1025.54 1025.46 1025.21
1018.08 1019.44 1020.32 1020.47 1020.58 1020.81 1021.05 1020.73 1021.37 1022.08 1022.94 1022.29 1020.85 1020.91 1020.53 1020.91 1021.41 1021.87 1022.22 1022.59 1023.11 1023.59 1024.32 1024.97 1025.28 1025.38 1025.61 1025.82 1026.05 1026.21 1026.34 1026.31 1026.44 1026.52 1026.58 1026.68 1026.60 1026.36 1026.16 1026.03 1025.95 1025.90 1025.74 1025.46
1019.37 1020.70 1021.28 1021.78 1021.67 1021.62 1021.58 1021.22 1021.74 1022.08 1022.29 1022.42 1020.67 1021.28 1020.03 1020.35 1021.23 1021.58 1021.73 1022.18 1022.91 1023.75 1024.34 1024.67 1025.07 1025.29 1025.53 1025.72 1025.69 1025.75 1025.85 1026.10 1026.33 1026.56 1026.68 1026.69 1026.57 1026.50 1026.40 1026.29 1026.10 1025.84 1025.49 1025.09
1020.70 1021.91 1022.84 1023.47 1023.31 1022.96 1022.59 1021.62 1021.63 1021.60 1021.77 1021.81 1021.57 1020.77 1020.38 1020.55 1020.97 1021.62 1022.03 1022.41 1022.98 1023.61 1024.05 1024.41 1024.63 1024.85 1025.12 1025.29 1025.46 1025.76 1026.07 1026.26 1026.44 1026.68 1026.76 1026.65 1026.49 1026.33 1026.28 1026.18 1026.07 1025.86 1025.49 1025.07
1021.87 1023.13 1024.70 1025.07 1024.98 1024.71 1023.45 1021.42 1021.32 1020.80 1020.94 1021.66 1022.06 1021.05 1021.50 1021.44 1021.50 1021.69 1022.12 1022.59 1023.03 1023.43 1023.82 1024.15 1024.27 1024.39 1024.62 1024.86 1025.17 1025.70 1026.06 1026.28 1026.48 1026.64 1026.73 1026.74 1026.80 1026.89 1026.86 1026.72 1026.42 1026.00 1025.51 1025.06
1022.29 1024.03 1025.33 1026.94 1027.11 1025.93 1021.97 1021.01 1020.97 1021.05 1021.35 1021.93 1022.21 1022.23 1022.04 1021.90 1021.87 1021.87 1022.20 1022.57 1023.04 1023.27 1023.60 1023.86 1024.08 1024.28 1024.57 1025.08 1025.51 1025.93 1026.27 1026.55 1026.88 1027.18 1027.37 1027.28 1027.42 1027.55 1027.43 1027.25 1026.97 1026.52 1026.00 1025.39
1022.58 1024.36 1026.51 1028.05 1028.08 1025.15 1022.32 1021.18 1021.05 1021.39 1021.49 1021.94 1022.63 1022.89 1022.50 1022.53 1022.60 1022.51 1022.29 1022.41 1022.65 1022.89 1023.06 1023.28 1023.58 1024.12 1024.85 1025.41 1025.85 1026.19 1026.46 1026.79 1027.02 1027.30 1027.53 1027.72 1027.91 1027.96 1027.83 1027.70 1027.21 1026.76 1026.16 1025.44
1023.64 1024.48 1025.99 1028.86 1028.29 1026.04 1022.55 1021.17 1020.58 1021.14 1022.07 1022.04 1022.44 1022.72 1022.74 1022.97 1023.36 1022.51 1022.27 1022.34 1022.46 1022.51 1022.79 1023.06 1023.61 1024.33 1025.04 1025.64 1025.96 1026.29 1026.70 1027.04 1027.31 1027.56 1027.78 1027.94 1027.99 1028.01 1027.91 1027.55 1027.14 1026.64 1026.18 1025.33
1025.33 1025.78 1025.84 1026.74 1027.23 1024.72 1022.23 1021.33 1021.15 1021.86 1021.69 1021.71 1022.29 1022.16 1022.34 1022.64 1021.78 1021.41 1021.70 1022.02 1022.07 1022.14 1022.52 1023.13 1023.90 1024.58 1025.28 1025.85 1026.20 1026.64 1026.98 1027.25 1027.52 1027.81 1027.97 1028.03 1028.03 1027.94 1027.65 1027.28 1026.89 1026.31 1025.73 1025.05
1024.25 1025.40 1026.05 1026.46 1025.80 1023.54 1021.15 1021.66 1021.31 1020.39 1020.56 1020.81 1021.23 1021.21 1021.61 1021.37 1021.15 1021.17 1021.10 1021.44 1021.77 1022.09 1022.59 1023.30 1024.16 1024.95 1025.68 1026.09 1026.29 1026.65 1027.03 1027.26 1027.62 1027.88 1028.06 1028.12 1027.93 1027.65 1027.34 1027.02 1026.40 1025.88 1025.33 1024.64
1023.24 1022.22 1023.09 1023.12 1022.16 1020.41 1020.12 1019.42 1019.00 1019.24 1019.75 1020.07 1020.30 1020.34 1020.56 1020.85 1020.83 1020.64 1020.81 1021.01 1021.21 1021.77 1022.70 1023.49 1024.33 1025.07 1025.69 1026.17 1026.71 1026.89 1027.17 1027.50 1027.77 1028.09 1028.22 1027.93 1027.57 1027.29 1027.00 1026.63 1025.87 1025.37 1024.70 1024.05
1021.40 1020.54 1020.78 1021.18 1020.12 1019.41 1018.96 1018.59 1018.62 1018.81 1019.14 1019.13 1019.30 1019.29 1019.65 1020.18 1020.00 1020.12 1020.33 1020.56 1021.10 1021.89 1022.85 1023.89 1024.74 1025.38 1025.92 1026.39 1026.59 1027.41 1027.61 1027.75 1028.06 1028.57 1028.05 1027.49 1027.20 1026.67 1026.32 1025.92 1025.32 1024.68 1023.91 1023.33
1019.29 1019.24 1019.14 1019.21 1018.79 1018.27 1017.99 1017.69 1017.83 1018.04 1018.29 1018.54 1018.66 1018.84 1018.99 1019.40 1019.63 1019.86 1020.14 1020.53 1021.10 1022.11 1023.09 1023.97 1024.74 1025.40 1026.07 1026.61 1026.81 1027.37 1027.77 1027.96 1028.49 1028.35 1027.65 1027.03 1026.60 1026.19 1025.72 1025.22 1024.58 1023.82 1023.00 1022.43
1016.82 1016.96 1017.97 1017.55 1016.91 1017.25 1016.76 1016.31 1016.68 1017.39 1017.60 1017.73 1018.15 1018.37 1018.47 1018.79 1019.01 1019.49 1020.23 1020.66 1021.53 1022.55 1023.51 1024.30 1025.02 1025.71 1026.21 1026.63 1026.93 1027.32 1027.80 1028.07 1028.40 1028.10 1027.45 1026.77 1026.22 1025.69 1025.25 1024.65 1023.76 1022.69 1021.92 1021.01
Wind_Speed
0 4 8 13 10 3 2 3 6 6 7 2 7 7 15 7 8 4 8 8 10 11 8 10 11 11 13 16 16 16 17 16 12 6 4 4 3 3 4 4 2 3 3 4
4 8 10 3 5 4 4 4 7 8 4 1 5 13 5 9 6 7 8 8 9 8 10 11 12 13 14 13 14 16 16 16 12 8 4 4 3 4 4 6 8 8 4 1
8 6 6 6 3 4 5 5 4 8 5 3 4 8 2 5 8 11 11 10 11 9 9 9 11 11 12 14 13 14 14 14 13 11 7 6 5 5 8 10 9 10 10 8
6 6 7 4 5 6 5 5 5 3 2 4 3 6 6 3 6 8 8 7 7 7 6 6 7 10 12 10 10 12 13 14 13 13 10 12 8 6 4 5 5 8 12 12
7 4 4 4 7 7 7 2 1 0 2 2 4 1 9 8 3 4 5 6 6 6 5 7 8 7 9 10 10 10 12 15 13 14 12 8 9 4 3 6 10 11 10 11
5 1 5 7 2 3 3 4 6 4 4 1 7 7 6 5 7 7 5 6 6 5 6 6 6 6 7 7 10 11 13 14 13 13 13 13 11 9 8 8 7 6 6 8
2 5 2 3 4 2 4 6 3 5 3 6 3 3 7 7 1 14 13 8 6 6 6 6 7 6 7 8 8 9 10 13 11 13 13 13 12 11 11 10 7 8 6 5
5 4 6 3 5 7 5 8 6 6 3 4 6 6 4 4 7 8 8 8 7 6 5 6 6 6 6 7 7 7 8 9 9 9 10 9 9 6 6 7 7 7 7 7
5 5 1 2 2 5 4 4 3 5 2 2 5 1 2 4 5 5 6 6 6 6 6 7 7 6 7 6 6 8 7 7 7 7 6 7 6 7 6 7 5 5 6 8
6 1 4 2 3 3 4 6 4 2 1 6 6 5 6 9 9 7 8 8 7 7 7 5 5 5 5 6 5 6 6 6 6 6 5 4 4 4 2 3 5 5 5 6
5 4 3 4 5 8 1 3 2 4 6 6 3 6 3 9 13 13 8 8 9 8 7 6 5 6 6 5 5 4 5 5 5 4 3 4 5 5 6 5 4 5 5 5
5 5 4 8 4 2 3 7 7 7 6 5 3 9 1 7 10 10 11 12 7 5 7 7 7 6 5 5 4 2 1 2 1 1 4 6 6 6 7 6 7 7 8 9
7 1 3 9 6 1 4 2 2 4 3 6 5 8 2 4 7 7 7 7 7 7 7 7 6 6 6 5 6 6 6 7 6 5 4 2 2 3 6 6 7 7 8 9
5 5 9 9 6 4 3 5 4 4 3 3 11 6 7 8 7 5 7 8 8 8 8 7 6 7 6 6 7 7 7 6 5 4 3 2 4 5 5 6 6 6 6 7
4 5 4 1 5 3 4 8 9 9 7 9 18 12 18 10 5 9 7 4 7 8 8 8 7 7 7 7 7 6 5 4 2 0 2 4 4 5 5 6 6 7 7 8
2 1 3 4 1 4 8 13 5 12 16 14 16 21 15 7 3 4 6 6 6 6 8 8 8 7 7 8 7 4 1 2 4 3 4 5 6 9 9 9 9 10 11 12
5 6 3 6 3 3 10 10 17 13 11 8 12 14 2 4 5 5 5 6 7 6 7 7 7 7 7 6 3 5 5 3 4 5 6 6 6 6 8 10 13 14 15 15
6 5 3 3 4 3 6 3 3 9 9 8 1 4 6 5 3 5 6 7 7 7 8 7 6 5 4 5 5 5 4 4 3 2 3 4 5 6 10 11 12 13 12 14
3 5 2 5 5 8 12 7 7 8 8 6 7 4 5 3 2 4 5 6 7 7 8 8 7 4 6 6 5 4 3 3 3 3 2 3 4 5 8 9 12 12 13 13
4 2 6 4 5 11 8 2 5 5 7 7 6 6 6 6 3 8 7 6 8 9 5 7 7 6 7 5 4 4 3 2 2 2 5 6 5 3 8 10 11 11 11 14
4 2 14 11 7 10 8 5 2 6 10 5 6 6 7 6 10 6 7 7 7 7 7 7 7 6 6 5 4 4 2 2 1 3 5 5 6 8 9 10 9 11 12 13
9 9 5 3 3 9 8 5 8 7 4 6 6 7 7 11 8 8 9 7 8 8 9 9 7 6 4 4 3 2 1 1 2 1 4 6 6 7 8 10 10 10 11 11
2 9 9 13 10 5 8 7 13 5 6 7 7 8 10 10 11 11 10 9 9 9 8 5 7 7 5 4 3 2 1 3 2 3 6 6 7 8 9 9 11 9 8 9
6 6 6 6 7 9 9 13 5 8 9 9 9 10 8 11 11 11 9 8 7 8 8 6 6 5 4 4 2 2 4 3 2 5 7 6 7 8 8 7 8 7 8 9
9 7 4 6 13 7 7 9 11 9 10 11 9 10 13 10 12 11 8 7 6 7 6 6 5 5 4 2 2 2 4 2 4 6 6 6 5 6 8 8 9 8 9 12
13 12 6 10 17 12 11 10 8 10 13 12 11 9 9 10 13 7 6 5 6 7 5 5 5 4 3 1 3 3 4 3 4 5 5 5 6 6 7 8 9 18 21 25
Wind_Direction
216 108 206 207 200 164 171 215 243 264 259 244 271 279 293 309 261 54 95 84 74 61 41 30 25 25 26 24 23 26 30 19 29 14 11 26 28 7 22 1 4 192 161 168
58 224 228 176 173 201 226 238 259 272 265 208 314 293 29 18 26 65 95 86 78 67 45 34 27 27 31 33 29 29 29 29 29 30 8 35 22 28 22 15 31 16 0 117
165 217 149 170 198 205 226 200 240 237 339 282 345 296 132 62 71 68 57 66 60 57 50 29 31 27 33 34 29 35 36 35 31 24 31 29 32 24 19 16 20 16 16 12
230 237 194 184 227 180 274 204 220 210 93 240 46 283 314 149 83 69 73 69 73 69 59 51 37 38 37 25 22 32 39 40 36 30 44 54 59 53 0 358 359 22 27 28
243 187 147 167 217 157 226 128 104 137 180 42 307 102 266 116 129 113 93 97 97 87 77 62 46 35 39 33 31 30 36 41 34 38 42 50 57 42 23 26 24 16 16 27
248 346 164 200 100 167 114 38 32 54 117 286 223 167 275 191 185 147 154 130 115 99 78 72 59 47 45 33 41 39 40 38 35 38 36 43 42 36 36 28 34 22 13 12
216 212 224 147 113 40 94 68 311 340 358 231 128 127 247 322 164 154 150 144 134 124 112 91 70 53 50 48 40 50 45 43 35 43 42 35 33 33 34 21 12 14 17 14
173 295 173 178 187 184 169 159 160 218 223 278 322 245 289 7 64 105 126 139 141 133 115 103 98 88 73 63 65 65 53 53 44 44 46 39 38 40 34 28 23 13 6 2
164 267 128 181 149 134 179 174 162 111 10 268 237 335 189 86 79 115 142 142 151 154 152 140 131 121 112 96 74 66 60 56 46 48 47 46 43 29 23 16 16 17 8 1
204 83 223 174 109 44 149 162 81 22 172 251 286 259 217 194 185 184 175 178 177 179 171 153 127 115 95 85 77 65 62 61 46 50 47 51 54 49 30 26 358 1 347 347
141 125 230 119 198 180 150 199 112 146 161 179 239 258 253 176 187 187 193 197 197 194 170 147 126 103 98 91 81 78 61 53 44 41 41 30 22 9 359 1 335 354 349 343
196 145 168 206 273 325 192 199 171 197 218 235 185 257 8 178 162 169 198 208 207 172 157 144 144 137 138 143 129 128 122 59 269 329 14 8 352 342 341 342 340 342 333 330
179 247 45 343 345 14 184 205 128 86 60 212 212 250 350 125 139 200 209 217 201 167 162 163 160 171 177 176 184 196 201 206 202 193 188 215 275 306 324 323 321 327 324 321
105 159 174 206 179 140 190 166 136 130 159 206 232 281 209 212 205 223 235 229 195 178 173 179 181 192 193 197 200 201 207 206 212 211 229 289 307 312 314 312 308 297 288 290
133 195 162 142 132 140 220 237 159 197 216 219 267 244 264 268 209 227 234 217 164 180 186 194 200 207 213 217 225 228 221 205 202 230 350 318 292 285 293 298 295 293 292 293
9 244 80 308 232 210 259 263 236 234 253 257 255 266 273 288 155 164 200 189 179 190 201 213 219 218 225 228 231 229 161 79 74 30 346 336 349 349 342 340 336 327 318 315
154 136 102 256 63 61 290 219 228 239 223 222 231 243 245 256 228 216 206 171 173 191 199 205 208 213 230 241 218 134 120 85 38 18 2 354 357 359 349 337 328 322 318 315
135 111 92 212 42 279 265 285 246 227 247 207 226 226 207 231 238 177 189 187 210 212 213 216 222 219 171 123 111 116 83 52 47 22 344 11 17 343 327 320 315 311 307 307
158 138 136 160 207 312 290 236 186 173 268 192 185 235 228 204 81 287 221 184 189 202 218 221 214 167 134 127 115 102 73 59 32 355 38 16 347 314 314 304 302 303 302 299
146 56 152 106 168 214 240 263 122 109 284 222 168 210 187 128 155 238 206 204 226 234 217 195 159 135 137 133 111 97 95 43 320 33 341 328 314 291 300 298 298 293 290 291
76 58 215 223 235 279 245 208 125 116 249 208 184 222 170 189 210 208 189 231 229 234 189 146 153 157 146 131 124 133 157 239 52 351 317 313 308 300 291 287 288 291 291 290
157 158 193 128 216 276 185 84 172 207 183 182 199 211 200 218 234 222 235 235 235 195 164 166 152 147 136 131 116 114 257 57 353 305 305 293 286 288 292 285 287 287 284 288
234 191 182 189 202 228 195 200 218 167 184 210 197 218 205 214 231 232 237 238 225 192 169 139 149 145 145 131 120 171 274 316 302 305 281 278 281 277 275 279 287 287 288 294
258 171 213 81 222 225 201 230 241 194 214 220 216 217 203 222 237 242 238 235 202 165 157 140 142 157 167 163 94 259 296 307 291 277 277 276 272 282 280 273 281 285 292 292
206 149 188 267 268 257 246 227 239 244 227 235 236 223 233 222 243 231 241 223 179 150 135 142 153 155 168 174 208 254 278 281 277 268 277 281 275 280 287 275 282 283 281 279
217 231 219 237 250 238 252 252 228 227 238 226 227 245 234 209 231 206 218 163 145 145 138 143 149 154 183 214 268 276 272 246 256 281 284 287 294 294 291 292 292 294 301 301